deb r/b Ablestar - Orbit

View from above orbital plane
View from above orbital plane
View from above satellite
View from above satellite

Ground track
Ground track

The orbit data is extracted from the following two-line orbital elements,

1 00335U 61015DM  13144.17516189  .00001129  00000-0  62778-3 0  9362
2 00335 066.8407 052.3493 0034649 092.1859 051.3561 14.14377650651270
Epoch (UTC): 24 May 2013 04:12:13
Eccentricity: 0.0034649
inclination: 66.8407°
perigee height: 819 km
apogee height: 869 km
right ascension of ascending node: 52.3493°
argument of perigee: 92.1859°
revolutions per day: 14.14377650
mean anomaly at epoch: 51.3561°
orbit number at epoch: 65127

The dashed part of the orbit path shows where the satellite is in the earth's shadow,  

Developed and maintained by Chris Peat, Heavens-Above GmbH. Please read the updated FAQ before sending e-mail. Imprint. DLR